Temp
69 69 69 70 70 69 73 74 74 75 75 75 74 74 74 74 74 75 73 72 71 69 67 67 68 69 74 70 73 74 74 74 74 74 74 74 73 73 73 73 72 71 71 72 72 72 72 72 73 72 73 73 72 66 65 65 65 65 64 65 66 65
68 68 69 70 70 71 71 72 69 70 71 73 74 74 72 70 74 69 73 70 68 69 66 65 67 72 68 71 71 74 74 74 74 74 73 73 73 73 73 72 72 72 71 71 72 65 64 69 73 72 73 72 67 64 65 65 65 65 65 64 65 68
68 69 69 70 70 71 70 69 69 70 71 73 73 72 69 70 67 68 69 68 68 67 65 66 66 69 69 72 70 74 74 74 74 74 73 73 73 73 72 72 72 72 71 70 65 62 62 62 63 72 72 67 63 64 64 65 64 64 65 65 64 72
68 69 69 69 69 69 68 68 68 69 69 69 68 69 67 66 66 66 67 68 67 67 67 64 72 74 75 68 68 73 74 74 74 73 74 70 72 72 73 72 72 71 67 65 64 63 63 62 62 63 64 63 63 63 64 64 64 64 64 67 65 73
68 68 69 69 69 68 68 67 67 67 67 67 67 66 65 65 65 66 66 68 66 68 66 65 65 66 65 65 65 64 65 66 65 65 69 63 63 64 66 63 63 65 64 65 65 63 63 63 64 64 65 64 65 64 64 65 64 64 64 64 66 73
68 67 67 67 68 70 69 66 66 67 67 67 67 66 65 65 66 67 66 67 69 67 66 65 65 65 66 65 65 64 64 64 64 64 68 65 63 64 64 64 65 65 65 65 65 65 64 65 64 63 64 65 65 64 64 63 64 64 64 64 67 73
67 67 67 67 67 67 66 66 67 67 67 65 65 65 64 64 65 66 67 67 67 65 65 65 65 65 65 65 65 64 63 63 62 63 66 65 64 64 64 65 65 65 64 65 66 66 65 66 65 65 64 66 65 65 64 63 64 64 64 64 68 74
67 67 66 67 66 66 66 66 68 70 67 68 67 65 64 64 65 66 67 67 68 65 65 64 65 65 65 64 65 65 64 63 63 63 64 64 63 62 64 65 64 64 65 66 66 67 66 67 66 65 65 64 66 65 64 64 64 64 63 64 66 72
67 66 66 66 66 65 65 66 67 66 66 70 65 65 65 65 65 66 67 67 67 66 65 64 64 64 64 64 64 64 63 64 63 64 63 63 63 62 62 63 64 65 64 65 65 66 66 67 66 66 65 64 65 65 64 64 63 64 63 63 65 68
66 66 66 66 65 65 64 65 67 67 67 69 66 66 65 65 65 65 65 66 67 65 65 65 64 64 64 65 64 64 64 64 64 63 63 63 63 62 62 62 63 64 66 66 66 67 66 67 67 66 65 65 65 65 64 64 64 64 64 64 64 67
66 68 66 66 65 65 66 65 67 67 67 67 66 66 66 65 65 65 65 66 66 66 66 65 65 65 64 64 64 64 64 65 64 63 63 64 62 63 62 63 64 64 65 65 65 66 66 67 66 65 64 66 65 64 64 64 64 64 64 65 64 65
66 67 66 66 66 66 66 66 67 66 66 66 67 66 66 67 67 66 66 65 65 65 66 65 64 65 66 65 64 64 64 64 65 64 64 63 62 62 63 63 63 64 64 65 65 65 66 65 66 65 63 64 64 64 64 64 64 64 65 64 64 65
68 67 67 67 67 66 66 67 66 66 66 67 67 67 66 66 67 66 66 66 65 65 65 64 64 64 66 66 66 64 65 65 65 65 63 64 64 62 63 63 64 64 63 64 64 64 66 63 63 63 63 64 64 64 64 64 64 64 64 65 65 65
68 67 67 67 67 66 66 66 65 65 67 67 66 67 67 65 66 66 65 65 66 66 65 65 65 65 65 65 65 65 64 64 65 64 64 63 63 63 63 62 64 63 66 64 64 64 63 65 63 62 62 63 63 63 63 64 63 64 64 64 65 64
68 66 68 67 67 66 66 66 66 66 67 66 66 65 66 65 66 66 65 65 65 66 67 66 66 65 64 64 65 65 65 65 65 64 63 63 63 63 62 63 62 64 63 62 62 64 64 63 64 65 63 62 62 63 63 63 63 63 63 63 63 64
67 66 67 67 66 66 66 65 66 68 65 65 65 64 65 65 66 66 65 65 65 65 66 65 65 65 64 64 64 65 65 65 64 63 63 63 64 63 62 63 63 62 62 63 63 63 61 63 63 63 62 62 63 64 63 63 63 63 64 63 63 63
67 66 66 66 66 65 65 66 66 67 66 65 65 65 65 65 65 65 65 65 64 65 65 65 65 65 65 65 64 65 64 64 64 64 63 62 62 63 63 64 63 63 63 62 62 63 63 61 62 62 61 62 63 64 63 63 63 63 63 62 62 63
66 66 66 66 66 65 65 66 66 65 68 66 65 65 65 65 65 65 65 65 64 64 65 65 65 65 65 65 64 63 63 64 65 65 64 62 63 62 62 62 63 63 63 63 62 62 62 62 62 62 60 61 62 62 62 63 63 65 63 62 62 62
67 66 65 66 66 65 65 65 64 64 65 65 65 65 65 65 65 65 64 65 65 65 65 65 65 65 65 65 65 64 64 64 64 65 65 64 63 62 62 62 62 63 62 63 63 62 63 62 62 61 61 61 62 62 63 63 63 63 63 62 63 64
66 66 66 65 65 64 64 63 63 64 64 64 64 65 64 65 65 65 65 65 64 63 64 64 64 64 65 65 65 64 63 63 63 64 65 65 64 63 63 63 62 62 62 63 63 63 61 61 60 60 60 60 61 61 62 63 63 63 63 63 63 63
67 67 65 64 64 63 63 63 63 62 63 63 64 64 64 64 64 64 65 64 65 64 64 63 65 63 63 65 63 62 61 62 62 63 64 65 65 65 65 64 64 63 63 62 62 62 62 62 61 60 59 60 60 61 62 63 63 62 63 63 63 63
66 66 66 65 65 65 63 63 62 62 63 63 64 64 64 64 65 65 65 65 65 64 64 63 64 64 64 63 63 64 65 65 65 65 65 65 65 65 65 64 64 63 63 62 62 63 62 61 59 59 58 57 57 60 61 62 62 62 62 63 63 63
64 64 63 65 64 63 63 64 63 63 63 64 65 65 64 64 65 64 64 64 65 65 64 63 64 64 64 63 64 65 65 65 65 65 64 64 65 65 65 65 64 62 62 63 63 63 63 63 61 59 59 58 57 56 57 59 61 62 63 62 62 63
64 65 64 65 65 64 66 65 65 64 65 65 64 66 66 65 65 64 65 65 65 65 65 65 65 65 64 63 63 63 64 64 64 64 63 63 64 64 64 64 64 63 63 61 62 62 64 63 62 59 56 56 56 55 55 57 58 61 62 62 62 62
64 64 64 64 63 64 65 65 65 65 65 63 64 65 65 65 64 65 66 65 65 65 65 64 65 65 65 64 64 64 63 63 62 62 62 62 63 63 64 64 64 63 63 62 61 62 62 63 63 63 60 57 55 55 56 57 55 57 59 60 61 62
64 63 63 63 63 64 64 63 63 62 61 61 61 62 62 62 63 63 63 64 65 65 65 64 64 64 64 64 64 64 63 63 62 62 62 62 63 63 63 62 63 63 63 63 62 61 60 62 63 63 63 62 62 58 56 56 58 55 58 61 61 62
64 63 64 64 65 65 64 64 64 63 62 61 61 62 64 65 64 64 65 64 65 65 65 64 64 64 64 64 64 63 62 62 62 62 63 62 63 63 63 64 64 63 63 63 62 60 60 61 62 62 63 63 63 62 61 58 56 57 55 58 61 60
63 64 64 65 65 65 63 62 63 63 63 62 62 62 63 64 65 65 64 64 65 65 65 65 64 64 65 65 65 64 64 64 64 64 64 64 63 63 64 64 65 65 64 63 62 61 61 61 60 60 63 62 62 62 61 61 61 58 56 55 57 61
62 63 63 64 64 64 64 63 63 63 62 62 63 63 64 64 63 64 63 63 64 64 65 65 65 65 65 65 66 65 65 64 64 63 64 63 63 63 63 63 63 63 63 63 63 62 61 61 61 60 61 61 61 61 60 61 61 59 57 55 56 58
61 61 62 62 63 63 63 63 62 62 61 61 62 62 62 62 62 62 62 62 61 63 64 64 64 64 64 65 65 65 64 64 63 63 64 63 63 64 64 64 64 64 64 63 63 63 62 62 62 62 61 61 60 60 60 59 59 59 58 58 56 56
59 59 60 60 61 61 61 61 60 60 59 59 60 60 59 59 60 60 60 60 61 61 62 62 62 62 63 63 64 65 64 64 64 64 63 63 63 63 63 63 64 64 64 63 63 63 62 62 62 62 62 61 61 60 59 58 58 59 58 57 56 56
58 57 57 58 59 59 59 58 58 57 57 57 57 57 56 56 58 58 58 57 58 60 60 61 61 60 60 62 62 62 63 63 62 62 62 63 63 63 63 64 64 64 64 64 64 63 63 63 63 63 62 62 62 62 61 60 61 60 59 58 58 57
55 55 55 56 56 56 56 55 55 55 55 56 55 55 56 55 55 55 55 55 55 55 57 57 58 58 59 60 60 60 60 60 60 61 62 61 60 60 60 61 63 63 63 63 63 63 63 63 63 62 62 63 62 62 61 62 61 60 60 60 59 57
54 54 55 55 55 55 55 55 55 55 55 55 54 55 54 54 55 55 55 54 54 54 54 54 55 56 57 59 58 58 58 58 59 60 58 56 56 56 56 57 60 60 61 62 63 62 62 63 63 63 63 62 62 62 62 62 62 61 60 59 58 58
54 54 54 53 54 54 54 54 55 55 54 55 54 54 54 54 54 54 54 53 53 53 53 53 53 55 56 55 55 56 56 56 57 57 55 55 54 54 55 55 56 56 57 58 58 60 61 62 62 62 63 62 62 62 62 62 62 61 61 60 60 59
53 53 53 54 53 53 53 54 54 53 53 54 55 54 53 54 53 53 53 52 52 52 52 52 53 53 53 53 53 53 53 53 55 55 54 54 53 52 53 53 53 54 54 56 55 56 59 61 62 62 62 62 62 62 62 62 62 62 61 61 60 60
54 53 53 53 52 53 53 53 53 53 53 53 52 52 51 52 52 53 52 52 51 52 52 52 52 53 52 52 52 52 51 52 53 53 52 53 52 51 51 51 50 51 51 53 53 54 56 58 60 62 62 62 62 62 62 62 62 62 62 62 61 61
MSLP
1016.04 1016.16 1016.28 1016.36 1016.44 1016.48 1016.48 1016.52 1016.60 1016.68 1016.76 1016.84 1016.96 1017.04 1017.08 1017.08 1017.08 1017.12 1017.24 1017.40 1017.56 1017.68 1017.76 1017.76 1017.72 1017.72 1017.72 1017.76 1017.80 1017.84 1017.84 1017.88 1017.84 1017.80 1017.80 1017.76 1017.80 1017.80 1017.80 1017.76 1017.76 1017.76 1017.80 1017.80 1017.80 1017.80 1017.92 1018.08 1018.12 1018.12 1018.04 1018.12 1018.24 1018.44 1018.56 1018.68 1018.80 1018.88 1018.96 1018.92 1018.92 1018.96
1016.16 1016.28 1016.32 1016.40 1016.44 1016.48 1016.52 1016.56 1016.64 1016.72 1016.76 1016.84 1016.88 1017.00 1017.08 1017.08 1017.12 1017.24 1017.40 1017.60 1017.76 1017.80 1017.84 1017.80 1017.80 1017.80 1017.88 1017.88 1017.88 1017.88 1017.92 1017.88 1017.88 1017.88 1017.84 1017.88 1017.88 1017.92 1017.88 1017.84 1017.84 1017.80 1017.84 1017.88 1017.84 1017.92 1018.16 1018.20 1018.12 1018.16 1018.16 1018.16 1018.40 1018.56 1018.64 1018.76 1018.92 1018.96 1019.00 1019.04 1019.00 1018.96
1016.24 1016.28 1016.36 1016.44 1016.44 1016.52 1016.56 1016.60 1016.64 1016.68 1016.72 1016.80 1016.92 1017.00 1017.08 1017.12 1017.28 1017.48 1017.72 1017.80 1017.80 1017.76 1017.80 1017.84 1017.88 1017.92 1017.92 1017.92 1017.88 1017.84 1017.88 1017.88 1017.88 1017.88 1017.88 1017.88 1017.92 1017.96 1018.00 1018.00 1017.96 1017.92 1017.92 1017.96 1018.00 1018.04 1018.24 1018.40 1018.32 1018.24 1018.28 1018.44 1018.56 1018.64 1018.72 1018.88 1018.96 1019.00 1019.08 1019.04 1019.04 1018.92
1016.24 1016.32 1016.44 1016.52 1016.56 1016.64 1016.64 1016.64 1016.68 1016.72 1016.84 1016.92 1017.00 1017.08 1017.12 1017.24 1017.40 1017.64 1017.80 1017.80 1017.76 1017.72 1017.80 1017.88 1017.80 1017.76 1017.76 1017.88 1017.92 1017.88 1017.88 1017.92 1017.92 1017.96 1017.92 1017.96 1017.96 1018.00 1018.04 1018.04 1018.08 1018.08 1018.12 1018.16 1018.16 1018.16 1018.32 1018.52 1018.44 1018.44 1018.52 1018.56 1018.64 1018.76 1018.84 1018.92 1019.00 1019.04 1019.08 1019.08 1019.08 1018.92
1016.36 1016.48 1016.60 1016.64 1016.72 1016.80 1016.72 1016.72 1016.76 1016.84 1016.92 1017.04 1017.12 1017.08 1017.12 1017.24 1017.44 1017.60 1017.72 1017.68 1017.72 1017.76 1017.84 1017.84 1017.88 1017.92 1017.92 1017.96 1018.04 1018.08 1018.08 1018.08 1018.08 1018.12 1018.08 1018.20 1018.20 1018.20 1018.20 1018.24 1018.24 1018.24 1018.28 1018.32 1018.28 1018.24 1018.28 1018.64 1018.56 1018.56 1018.56 1018.64 1018.68 1018.76 1018.88 1018.92 1019.00 1019.08 1019.08 1019.12 1019.12 1019.00
1016.52 1016.64 1016.68 1016.72 1016.80 1016.76 1016.76 1016.88 1016.92 1016.96 1017.04 1017.08 1017.08 1017.12 1017.16 1017.32 1017.48 1017.60 1017.64 1017.64 1017.68 1017.84 1017.92 1018.00 1018.04 1018.08 1018.12 1018.16 1018.20 1018.24 1018.20 1018.20 1018.24 1018.24 1018.20 1018.32 1018.32 1018.36 1018.32 1018.32 1018.32 1018.32 1018.32 1018.32 1018.32 1018.24 1018.20 1018.36 1018.76 1018.64 1018.60 1018.60 1018.68 1018.84 1018.96 1018.96 1018.96 1019.00 1019.00 1019.08 1019.08 1019.00
1016.64 1016.68 1016.72 1016.68 1016.72 1016.76 1016.80 1016.76 1016.84 1017.00 1017.16 1017.24 1017.16 1017.28 1017.40 1017.48 1017.60 1017.64 1017.64 1017.64 1017.84 1018.00 1018.20 1018.28 1018.24 1018.20 1018.28 1018.24 1018.28 1018.28 1018.32 1018.32 1018.32 1018.32 1018.32 1018.40 1018.44 1018.44 1018.40 1018.36 1018.36 1018.36 1018.36 1018.32 1018.24 1018.20 1018.12 1018.08 1018.36 1018.64 1018.64 1018.64 1018.68 1018.76 1018.84 1019.00 1018.96 1018.96 1018.96 1019.00 1019.00 1018.92
1016.60 1016.68 1016.76 1016.68 1016.76 1016.76 1016.76 1016.80 1016.96 1017.00 1017.16 1017.16 1017.28 1017.40 1017.44 1017.60 1017.72 1017.76 1017.72 1017.76 1017.80 1018.08 1018.36 1018.52 1018.48 1018.44 1018.40 1018.36 1018.40 1018.36 1018.36 1018.40 1018.40 1018.40 1018.40 1018.48 1018.56 1018.56 1018.52 1018.44 1018.40 1018.36 1018.36 1018.36 1018.40 1018.20 1018.16 1018.16 1018.16 1018.36 1018.60 1018.64 1018.64 1018.68 1018.76 1018.84 1018.92 1018.92 1018.96 1019.00 1018.96 1018.92
1016.64 1016.76 1016.72 1016.64 1016.72 1016.72 1016.80 1016.96 1017.08 1017.16 1017.28 1017.20 1017.32 1017.28 1017.40 1017.64 1017.84 1017.84 1017.72 1017.72 1017.84 1018.16 1018.32 1018.44 1018.56 1018.56 1018.52 1018.52 1018.44 1018.36 1018.32 1018.32 1018.36 1018.36 1018.40 1018.48 1018.60 1018.72 1018.68 1018.60 1018.52 1018.44 1018.44 1018.44 1018.40 1018.36 1018.24 1018.20 1018.20 1018.16 1018.36 1018.52 1018.52 1018.60 1018.64 1018.72 1018.84 1018.92 1018.92 1018.96 1019.00 1018.96
1016.76 1016.80 1016.76 1016.72 1016.76 1016.84 1017.00 1017.16 1017.20 1017.28 1017.28 1017.20 1017.24 1017.32 1017.44 1017.64 1017.84 1017.80 1017.76 1017.76 1017.84 1018.04 1018.20 1018.32 1018.44 1018.44 1018.52 1018.56 1018.52 1018.44 1018.40 1018.36 1018.40 1018.40 1018.40 1018.48 1018.48 1018.60 1018.68 1018.72 1018.68 1018.64 1018.56 1018.48 1018.44 1018.28 1018.32 1018.28 1018.20 1018.16 1018.12 1018.20 1018.28 1018.32 1018.40 1018.52 1018.64 1018.76 1018.80 1018.80 1018.84 1018.88
1016.88 1016.84 1016.80 1016.80 1016.88 1017.00 1017.08 1017.16 1017.20 1017.24 1017.20 1017.20 1017.24 1017.36 1017.48 1017.64 1017.80 1017.80 1017.80 1017.88 1017.96 1018.04 1018.20 1018.28 1018.28 1018.32 1018.48 1018.60 1018.68 1018.72 1018.64 1018.48 1018.48 1018.40 1018.36 1018.32 1018.32 1018.40 1018.48 1018.56 1018.60 1018.64 1018.68 1018.60 1018.48 1018.28 1018.28 1018.24 1018.12 1018.08 1017.96 1017.96 1018.08 1018.20 1018.32 1018.40 1018.48 1018.60 1018.68 1018.64 1018.72 1018.72
1016.96 1016.96 1016.92 1016.96 1017.00 1017.20 1017.20 1017.16 1017.20 1017.24 1017.24 1017.24 1017.32 1017.48 1017.60 1017.72 1017.80 1017.84 1017.84 1017.96 1018.00 1018.16 1018.24 1018.28 1018.32 1018.32 1018.44 1018.52 1018.64 1018.72 1018.68 1018.64 1018.48 1018.36 1018.28 1018.24 1018.28 1018.28 1018.32 1018.36 1018.40 1018.44 1018.44 1018.44 1018.36 1018.24 1018.16 1018.16 1018.04 1017.92 1017.92 1017.88 1018.00 1018.16 1018.24 1018.36 1018.44 1018.52 1018.56 1018.56 1018.60 1018.64
1016.96 1017.00 1017.04 1017.08 1017.16 1017.20 1017.16 1017.12 1017.20 1017.28 1017.24 1017.24 1017.36 1017.52 1017.68 1017.72 1017.76 1017.84 1017.88 1017.96 1018.04 1018.12 1018.16 1018.24 1018.28 1018.28 1018.36 1018.40 1018.44 1018.52 1018.52 1018.48 1018.40 1018.36 1018.32 1018.24 1018.20 1018.24 1018.28 1018.32 1018.36 1018.32 1018.32 1018.32 1018.32 1018.24 1018.12 1018.08 1018.04 1017.88 1017.84 1017.76 1017.96 1018.16 1018.32 1018.44 1018.48 1018.56 1018.52 1018.48 1018.52 1018.56
1017.00 1017.00 1017.04 1017.08 1017.16 1017.24 1017.16 1017.12 1017.20 1017.24 1017.20 1017.28 1017.36 1017.48 1017.52 1017.56 1017.60 1017.72 1017.80 1017.92 1018.04 1018.08 1018.12 1018.12 1018.20 1018.28 1018.28 1018.36 1018.36 1018.40 1018.40 1018.32 1018.24 1018.24 1018.32 1018.40 1018.44 1018.44 1018.48 1018.48 1018.44 1018.40 1018.36 1018.32 1018.32 1018.20 1018.24 1018.20 1017.96 1017.88 1017.92 1017.84 1018.20 1018.68 1018.68 1018.68 1018.68 1018.64 1018.52 1018.52 1018.48 1018.52
1017.00 1017.04 1017.04 1017.12 1017.16 1017.16 1017.16 1017.20 1017.24 1017.24 1017.24 1017.28 1017.36 1017.40 1017.40 1017.44 1017.52 1017.64 1017.80 1017.92 1018.00 1018.08 1018.08 1018.08 1018.08 1018.20 1018.28 1018.32 1018.36 1018.32 1018.28 1018.16 1018.16 1018.20 1018.28 1018.36 1018.48 1018.52 1018.52 1018.48 1018.44 1018.48 1018.40 1018.40 1018.28 1018.20 1018.20 1018.16 1018.04 1017.96 1018.24 1018.60 1018.68 1018.84 1019.24 1019.64 1019.56 1019.32 1018.96 1018.60 1018.52 1018.48
1016.96 1017.04 1017.04 1017.08 1017.12 1017.24 1017.24 1017.24 1017.16 1017.08 1017.16 1017.24 1017.32 1017.40 1017.40 1017.44 1017.48 1017.56 1017.80 1017.92 1017.96 1018.04 1018.08 1018.08 1018.08 1018.12 1018.24 1018.28 1018.36 1018.32 1018.20 1018.20 1018.28 1018.32 1018.32 1018.32 1018.36 1018.48 1018.48 1018.48 1018.40 1018.44 1018.52 1018.36 1018.32 1018.20 1018.08 1018.12 1018.08 1018.08 1018.64 1018.48 1018.24 1018.24 1018.52 1018.72 1019.04 1019.36 1019.56 1019.36 1018.80 1018.48
1017.00 1017.08 1017.08 1017.12 1017.28 1017.44 1017.40 1017.32 1017.24 1017.08 1017.04 1017.16 1017.24 1017.32 1017.32 1017.40 1017.48 1017.48 1017.68 1017.84 1017.88 1018.00 1018.00 1018.00 1018.00 1018.04 1018.12 1018.20 1018.24 1018.32 1018.32 1018.36 1018.32 1018.32 1018.36 1018.36 1018.40 1018.36 1018.40 1018.40 1018.28 1018.20 1018.24 1018.32 1018.20 1018.12 1018.04 1018.04 1018.08 1018.24 1018.52 1018.32 1018.04 1018.00 1018.48 1018.44 1018.44 1018.60 1018.64 1019.00 1019.16 1018.64
1017.04 1017.00 1017.04 1017.24 1017.48 1017.56 1017.56 1017.48 1017.40 1017.28 1017.12 1017.16 1017.20 1017.24 1017.32 1017.40 1017.48 1017.44 1017.40 1017.56 1017.76 1017.92 1017.96 1017.96 1017.96 1017.92 1018.00 1018.08 1018.20 1018.32 1018.36 1018.36 1018.28 1018.28 1018.32 1018.36 1018.40 1018.36 1018.44 1018.48 1018.44 1018.24 1018.16 1018.20 1018.16 1018.12 1018.00 1017.92 1018.00 1018.12 1018.28 1018.28 1018.12 1018.08 1018.12 1018.16 1018.32 1018.36 1018.44 1018.48 1018.88 1018.92
1017.16 1017.08 1017.08 1017.16 1017.40 1017.56 1017.60 1017.56 1017.44 1017.44 1017.40 1017.32 1017.28 1017.24 1017.32 1017.44 1017.48 1017.48 1017.48 1017.48 1017.60 1017.76 1017.84 1017.88 1017.92 1017.96 1018.08 1018.12 1018.20 1018.24 1018.32 1018.28 1018.28 1018.32 1018.32 1018.28 1018.28 1018.36 1018.40 1018.40 1018.40 1018.24 1018.08 1018.04 1017.96 1017.88 1017.88 1017.92 1017.96 1018.04 1018.08 1018.04 1018.00 1017.92 1018.00 1018.00 1018.04 1018.12 1018.20 1018.12 1018.28 1018.68
1017.44 1017.36 1017.24 1017.28 1017.40 1017.60 1017.80 1017.92 1017.88 1017.64 1017.56 1017.52 1017.52 1017.48 1017.40 1017.52 1017.48 1017.56 1017.52 1017.48 1017.48 1017.52 1017.60 1017.76 1017.92 1017.96 1018.04 1018.08 1018.20 1018.28 1018.36 1018.36 1018.32 1018.28 1018.32 1018.28 1018.28 1018.28 1018.36 1018.36 1018.36 1018.40 1018.40 1018.24 1018.00 1017.80 1017.80 1017.96 1018.20 1018.20 1018.08 1017.92 1017.84 1017.84 1017.92 1018.00 1017.96 1017.88 1017.80 1017.84 1017.92 1018.08
1017.60 1017.44 1017.56 1017.60 1017.60 1017.72 1017.92 1018.04 1017.92 1017.88 1017.80 1017.64 1017.64 1017.60 1017.60 1017.56 1017.56 1017.48 1017.44 1017.40 1017.40 1017.36 1017.40 1017.60 1017.84 1017.92 1018.00 1018.00 1018.12 1018.24 1018.24 1018.20 1018.12 1018.08 1018.16 1018.20 1018.12 1018.08 1018.08 1018.20 1018.28 1018.32 1018.36 1018.48 1018.24 1017.88 1017.84 1017.96 1018.24 1018.04 1017.84 1017.92 1017.80 1017.64 1017.56 1017.52 1017.56 1017.56 1017.52 1017.48 1017.60 1017.76
1017.76 1017.60 1017.60 1017.72 1017.68 1017.60 1017.72 1017.80 1017.80 1017.76 1017.72 1017.68 1017.72 1017.80 1017.80 1017.68 1017.64 1017.48 1017.40 1017.36 1017.40 1017.40 1017.48 1017.64 1017.68 1017.64 1017.72 1017.84 1017.96 1018.00 1018.00 1018.00 1018.04 1018.08 1018.12 1018.12 1018.12 1018.08 1018.12 1018.16 1018.20 1018.32 1018.16 1018.24 1018.12 1017.72 1017.84 1018.20 1018.36 1018.32 1018.24 1018.24 1018.00 1017.76 1017.40 1017.24 1017.16 1017.12 1017.20 1017.24 1017.32 1017.40
1018.00 1017.88 1017.92 1017.88 1017.84 1017.88 1017.64 1017.48 1017.60 1017.68 1017.76 1017.84 1017.80 1017.88 1017.96 1017.84 1017.68 1017.60 1017.48 1017.36 1017.28 1017.32 1017.48 1017.60 1017.64 1017.64 1017.72 1017.84 1018.00 1018.04 1018.04 1018.00 1018.04 1018.08 1018.16 1018.12 1018.04 1018.12 1018.16 1018.24 1018.32 1018.36 1018.16 1017.96 1017.84 1017.56 1017.76 1017.80 1018.04 1017.96 1018.24 1018.56 1018.20 1017.96 1017.28 1017.36 1016.96 1016.80 1016.84 1016.96 1017.00 1017.00
1018.24 1018.12 1018.16 1018.08 1018.00 1017.80 1017.68 1017.60 1017.56 1017.72 1017.80 1017.92 1018.12 1017.96 1017.96 1017.92 1017.88 1017.80 1017.76 1017.60 1017.44 1017.36 1017.36 1017.44 1017.44 1017.52 1017.56 1017.68 1017.88 1017.96 1017.96 1017.96 1017.96 1018.00 1018.08 1018.08 1018.04 1018.08 1018.12 1018.16 1018.08 1018.00 1018.08 1018.04 1017.80 1017.56 1017.36 1017.48 1017.64 1018.16 1018.64 1018.44 1018.00 1017.80 1017.68 1017.20 1016.96 1016.36 1016.32 1016.52 1016.68 1016.68
1018.36 1018.32 1018.40 1018.28 1018.16 1018.04 1017.88 1017.84 1017.92 1017.92 1017.96 1018.12 1018.12 1018.24 1018.24 1018.36 1018.32 1018.24 1018.12 1018.04 1017.92 1017.64 1017.60 1017.60 1017.56 1017.56 1017.56 1017.60 1017.64 1017.76 1017.84 1017.88 1017.92 1017.96 1018.00 1018.08 1018.04 1018.00 1018.00 1018.04 1017.96 1017.88 1017.80 1017.80 1017.72 1017.56 1017.24 1017.20 1017.36 1017.36 1017.72 1018.08 1018.28 1018.12 1017.40 1016.76 1016.80 1016.48 1016.28 1016.52 1016.44 1016.40
1018.60 1018.48 1018.44 1018.48 1018.40 1018.32 1018.36 1018.48 1018.56 1018.72 1019.00 1019.08 1019.24 1019.12 1019.32 1019.32 1019.00 1018.80 1018.84 1018.52 1018.20 1018.04 1017.96 1017.92 1017.84 1017.80 1017.76 1017.72 1017.76 1017.72 1017.76 1017.80 1017.84 1017.80 1017.80 1017.88 1017.84 1017.80 1017.80 1017.88 1017.76 1017.64 1017.52 1017.40 1017.48 1017.48 1017.32 1017.00 1016.92 1016.96 1016.96 1016.96 1017.00 1017.24 1017.24 1016.84 1017.00 1016.76 1016.24 1016.08 1016.12 1016.24
1018.72 1018.72 1018.68 1018.64 1018.64 1018.64 1018.76 1018.72 1018.92 1019.16 1019.32 1019.44 1019.60 1019.60 1019.44 1019.24 1019.20 1019.00 1018.76 1018.68 1018.52 1018.28 1018.16 1018.12 1018.08 1018.00 1017.96 1017.88 1017.84 1017.84 1017.88 1017.88 1017.84 1017.76 1017.76 1017.84 1017.84 1017.80 1017.68 1017.52 1017.40 1017.36 1017.24 1017.16 1017.28 1017.40 1017.24 1017.00 1016.80 1016.68 1016.68 1016.68 1016.68 1016.56 1016.56 1017.04 1017.00 1016.60 1016.64 1016.16 1016.12 1016.16
1018.92 1018.96 1018.96 1018.88 1018.96 1018.96 1019.12 1019.16 1019.20 1019.32 1019.36 1019.48 1019.60 1019.80 1019.56 1019.44 1019.28 1019.16 1019.08 1019.00 1018.80 1018.64 1018.48 1018.36 1018.36 1018.28 1018.16 1018.04 1017.96 1017.88 1017.80 1017.80 1017.80 1017.76 1017.76 1017.76 1017.72 1017.60 1017.48 1017.32 1017.16 1017.00 1016.88 1016.88 1017.00 1017.12 1016.92 1016.76 1016.96 1016.64 1016.44 1016.44 1016.36 1016.32 1016.40 1016.36 1016.12 1016.20 1016.32 1016.44 1016.16 1016.00
1019.12 1019.16 1019.24 1019.24 1019.32 1019.36 1019.36 1019.36 1019.40 1019.44 1019.48 1019.56 1019.68 1019.76 1019.68 1019.56 1019.44 1019.36 1019.36 1019.28 1019.16 1018.96 1018.76 1018.64 1018.60 1018.56 1018.36 1018.20 1018.08 1018.12 1018.04 1018.00 1017.92 1017.84 1017.72 1017.68 1017.60 1017.48 1017.44 1017.32 1017.12 1016.92 1016.76 1016.60 1016.56 1016.60 1016.68 1016.60 1016.60 1016.56 1016.52 1016.36 1016.24 1016.12 1016.16 1016.08 1015.92 1015.96 1016.20 1016.52 1016.24 1016.16
1019.60 1019.68 1019.68 1019.68 1019.68 1019.72 1019.64 1019.56 1019.60 1019.64 1019.76 1019.88 1019.84 1019.88 1019.80 1019.76 1019.72 1019.60 1019.60 1019.56 1019.44 1019.24 1019.08 1018.92 1018.76 1018.72 1018.64 1018.40 1018.24 1018.24 1018.20 1018.08 1018.00 1017.88 1017.76 1017.68 1017.60 1017.48 1017.36 1017.24 1017.00 1016.80 1016.56 1016.48 1016.36 1016.40 1016.40 1016.32 1016.28 1016.20 1016.24 1016.16 1016.16 1015.96 1015.88 1015.88 1015.84 1015.80 1015.76 1015.76 1015.88 1015.80
1020.16 1020.16 1020.08 1020.08 1020.04 1020.04 1019.96 1019.88 1019.96 1020.04 1020.08 1020.16 1020.12 1020.12 1020.04 1020.04 1020.00 1019.96 1020.00 1019.92 1019.76 1019.68 1019.48 1019.28 1019.04 1018.92 1018.80 1018.60 1018.56 1018.52 1018.44 1018.32 1018.16 1018.04 1017.88 1017.76 1017.64 1017.48 1017.28 1017.08 1016.84 1016.60 1016.44 1016.36 1016.28 1016.16 1016.04 1015.96 1015.88 1015.88 1015.84 1015.88 1015.84 1015.76 1015.76 1015.68 1015.48 1015.48 1015.44 1015.68 1015.92 1015.80
1020.56 1020.60 1020.56 1020.48 1020.40 1020.44 1020.36 1020.32 1020.28 1020.28 1020.32 1020.40 1020.40 1020.40 1020.48 1020.60 1020.56 1020.52 1020.48 1020.44 1020.24 1020.04 1019.92 1019.68 1019.52 1019.36 1019.08 1018.92 1018.92 1018.88 1018.76 1018.64 1018.52 1018.32 1018.20 1017.96 1017.72 1017.52 1017.28 1017.00 1016.76 1016.52 1016.36 1016.16 1016.04 1015.96 1015.80 1015.72 1015.64 1015.48 1015.40 1015.44 1015.36 1015.28 1015.16 1015.04 1014.72 1014.72 1014.96 1015.04 1015.20 1015.20
1021.00 1021.00 1021.00 1020.96 1020.88 1020.84 1020.80 1020.84 1020.80 1020.72 1020.72 1020.72 1020.80 1020.88 1021.00 1021.04 1021.00 1020.92 1020.88 1020.88 1020.80 1020.76 1020.56 1020.28 1020.08 1019.88 1019.80 1019.60 1019.48 1019.36 1019.24 1019.16 1019.00 1018.80 1018.56 1018.40 1018.36 1018.08 1017.84 1017.32 1016.92 1016.60 1016.36 1016.20 1016.08 1015.96 1015.84 1015.64 1015.48 1015.40 1015.24 1015.08 1014.96 1014.80 1014.60 1014.28 1014.28 1014.48 1014.48 1014.64 1014.92 1015.04
1021.40 1021.40 1021.36 1021.32 1021.32 1021.28 1021.32 1021.32 1021.16 1021.12 1021.16 1021.16 1021.24 1021.32 1021.40 1021.44 1021.40 1021.32 1021.32 1021.40 1021.36 1021.32 1021.16 1021.04 1020.80 1020.68 1020.48 1020.20 1020.08 1020.04 1019.88 1019.76 1019.52 1019.20 1019.24 1019.24 1019.00 1018.72 1018.40 1017.92 1017.40 1017.08 1016.76 1016.40 1016.16 1015.96 1015.76 1015.52 1015.36 1015.24 1015.08 1014.88 1014.68 1014.52 1014.28 1014.12 1014.08 1014.12 1014.28 1014.56 1014.76 1014.76
1021.64 1021.76 1021.76 1021.80 1021.76 1021.76 1021.80 1021.68 1021.56 1021.52 1021.56 1021.56 1021.64 1021.72 1021.76 1021.76 1021.80 1021.76 1021.72 1021.72 1021.68 1021.60 1021.48 1021.40 1021.28 1021.16 1020.92 1020.80 1020.68 1020.52 1020.32 1020.12 1019.88 1019.80 1019.80 1019.60 1019.32 1018.96 1018.64 1018.28 1018.00 1017.76 1017.32 1017.00 1016.72 1016.24 1015.76 1015.40 1015.16 1015.04 1014.84 1014.68 1014.44 1014.20 1014.04 1013.88 1013.80 1013.80 1013.84 1013.88 1013.96 1014.08
1022.08 1022.16 1022.12 1022.16 1022.28 1022.28 1022.28 1022.12 1021.96 1021.96 1022.04 1022.00 1022.00 1022.08 1022.12 1022.08 1022.08 1022.00 1022.04 1022.00 1022.04 1021.92 1021.84 1021.72 1021.52 1021.40 1021.28 1021.16 1020.96 1020.84 1020.68 1020.52 1020.28 1020.20 1020.04 1019.84 1019.64 1019.36 1019.04 1018.72 1018.40 1018.08 1017.80 1017.44 1017.20 1016.68 1016.08 1015.48 1015.12 1014.84 1014.64 1014.40 1014.28 1014.00 1013.76 1013.68 1013.60 1013.52 1013.52 1013.52 1013.68 1013.84
1022.36 1022.44 1022.48 1022.60 1022.64 1022.64 1022.60 1022.44 1022.44 1022.44 1022.44 1022.40 1022.48 1022.56 1022.56 1022.44 1022.36 1022.28 1022.24 1022.28 1022.28 1022.20 1022.04 1021.88 1021.80 1021.64 1021.56 1021.36 1021.20 1021.08 1021.00 1020.84 1020.64 1020.52 1020.32 1020.12 1019.96 1019.72 1019.44 1019.20 1018.92 1018.52 1018.20 1017.76 1017.44 1017.00 1016.48 1015.92 1015.28 1014.84 1014.48 1014.24 1014.08 1013.80 1013.64 1013.52 1013.44 1013.36 1013.28 1013.28 1013.36 1013.48
Wind_Speed
5 5 5 4 4 3 6 8 8 10 10 10 9 9 8 8 6 6 4 5 5 4 3 2 1 0 2 1 3 3 5 4 4 4 3 2 0 1 1 1 2 3 3 4 4 5 7 9 6 6 11 11 11 6 5 5 4 4 3 2 3 3
5 5 5 4 3 3 3 6 3 4 4 6 8 7 5 3 4 2 5 4 3 2 2 1 0 1 1 0 1 3 2 4 4 3 2 1 1 1 2 1 3 4 4 4 5 3 5 7 5 6 9 13 7 5 5 5 4 4 3 3 3 5
5 5 6 4 4 4 4 3 3 4 4 6 5 5 3 3 2 3 3 2 2 1 1 1 0 1 1 2 1 4 3 2 2 3 3 2 1 2 2 3 4 5 5 6 3 3 5 4 3 6 8 5 5 5 4 4 4 4 4 3 3 7
5 5 5 4 4 4 3 3 4 4 4 4 4 3 3 3 2 3 3 2 2 2 1 1 2 3 4 2 1 3 4 3 2 1 2 1 2 2 3 4 5 6 4 3 3 3 4 3 3 4 4 5 5 4 4 4 5 4 5 3 3 9
5 5 5 4 4 4 3 3 3 4 4 4 3 3 3 3 3 3 3 3 3 2 2 2 0 0 1 2 1 0 0 1 1 0 3 0 2 2 3 3 3 3 3 3 4 3 2 5 1 3 5 4 4 4 4 4 5 5 4 3 3 9
5 4 4 4 4 4 5 3 3 3 4 3 4 3 3 4 3 3 3 3 3 3 2 0 0 0 1 1 1 1 1 0 1 1 1 1 1 2 3 2 3 3 3 3 3 3 2 1 5 3 4 5 5 4 3 4 5 5 5 4 4 10
6 5 4 3 3 3 3 3 3 3 3 2 2 3 2 2 2 2 2 2 2 2 1 0 1 1 1 1 2 2 2 1 1 1 2 1 2 1 3 3 3 3 3 3 4 3 4 4 1 4 3 4 4 5 5 5 5 5 5 5 5 12
6 5 4 4 4 4 3 4 4 3 3 3 2 2 2 1 1 1 1 0 1 0 0 0 1 1 2 1 2 1 2 2 2 2 1 1 2 2 2 3 2 3 3 3 4 4 4 3 4 1 4 4 5 5 5 5 5 5 5 5 3 9
5 5 4 4 4 3 3 3 2 2 3 3 3 4 3 1 2 1 0 0 0 0 1 0 1 2 2 2 2 2 2 2 2 3 1 2 1 1 2 2 3 3 3 4 4 5 4 5 3 4 2 4 6 6 6 6 5 5 5 5 5 6
5 5 4 3 3 3 2 3 2 2 3 3 4 2 1 1 2 1 1 1 0 1 1 0 1 2 2 4 3 3 3 2 1 2 2 3 2 3 2 2 3 3 4 5 5 5 4 5 5 3 4 4 6 7 6 7 6 6 5 6 6 5
3 3 2 3 2 2 2 2 2 2 3 3 2 2 2 1 1 2 2 1 1 0 0 1 1 2 2 2 2 3 4 3 3 2 3 4 2 3 4 4 3 4 4 5 6 5 5 5 5 3 2 3 5 5 6 5 5 5 6 6 5 5
2 2 2 2 2 3 3 3 3 3 3 2 2 1 1 1 2 2 1 2 2 0 0 1 2 2 2 3 3 3 3 4 4 2 3 3 3 2 3 3 3 3 4 4 5 5 5 5 5 4 1 3 4 5 6 5 6 6 6 5 6 6
3 2 2 2 2 2 3 3 3 3 2 2 2 2 3 3 2 2 2 2 2 2 2 2 2 3 3 3 3 3 4 4 4 3 3 3 2 2 1 2 3 2 3 3 5 5 4 3 3 4 1 2 3 4 3 3 5 5 6 6 6 5
4 4 4 3 3 3 3 2 2 2 3 3 3 3 4 3 2 2 2 2 3 3 2 2 3 3 4 4 4 4 4 4 4 3 3 2 2 1 2 2 4 3 4 3 4 5 4 5 6 2 1 0 3 4 1 3 4 5 5 5 5 5
3 4 4 4 4 4 2 2 2 3 4 3 2 2 3 2 3 2 2 3 2 2 3 3 3 3 4 3 4 4 4 5 4 3 2 2 2 1 2 3 2 4 4 4 3 4 4 5 5 6 2 7 6 2 1 6 7 5 4 4 5 5
3 4 4 4 4 3 3 2 3 4 2 2 2 2 2 2 3 2 2 3 2 2 3 4 3 3 4 4 4 5 5 3 3 2 1 1 1 2 3 3 3 2 4 6 4 5 2 5 4 3 6 5 6 6 5 4 3 3 5 6 5 5
3 3 3 3 2 1 2 3 3 3 2 2 3 4 3 2 3 3 2 4 3 3 3 4 4 4 4 5 4 4 3 2 2 2 3 2 2 3 3 4 4 3 4 5 5 5 5 3 3 1 4 4 4 4 5 4 4 5 5 5 7 5
1 2 3 3 0 1 1 0 1 0 1 2 2 3 3 2 4 4 3 2 2 2 2 3 3 3 4 4 3 2 2 2 2 3 3 3 4 2 3 3 5 4 4 4 4 5 5 4 3 2 2 4 4 3 4 4 3 5 6 7 8 7
1 1 2 1 2 3 3 2 1 2 0 1 2 2 2 3 3 4 4 4 1 1 2 3 3 3 2 2 2 2 2 3 2 3 3 3 3 2 2 3 5 5 3 4 5 4 5 3 4 3 4 4 5 5 4 3 3 5 5 6 8 7
4 4 4 2 2 3 3 2 0 3 2 2 1 2 2 2 4 4 3 3 3 2 1 2 3 3 4 3 3 3 3 3 3 2 2 4 3 3 4 4 5 4 5 4 4 4 3 2 2 3 3 4 5 5 4 4 6 6 6 6 7 6
3 4 1 3 1 1 1 1 1 1 3 2 1 1 3 3 3 3 3 3 3 4 3 2 1 2 3 4 3 2 2 2 1 1 2 4 5 5 4 4 3 2 4 5 6 4 2 4 2 6 3 4 5 5 6 6 7 6 7 6 5 6
5 6 7 5 3 1 0 1 2 3 1 1 1 2 3 4 4 4 4 4 3 4 4 4 3 2 1 1 1 2 2 3 2 2 2 3 4 5 5 4 3 3 3 5 6 3 4 3 3 5 4 3 3 3 6 6 7 7 7 5 6 6
6 7 6 6 5 3 3 2 2 2 3 2 2 2 2 3 4 5 5 5 5 4 3 2 1 1 1 2 2 2 2 2 1 1 2 4 4 5 4 5 5 4 6 3 6 4 4 7 6 2 0 2 5 3 2 4 5 8 7 7 7 7
6 7 6 6 5 5 4 4 5 4 4 5 3 4 4 4 6 6 7 6 6 5 5 5 4 4 3 2 1 1 0 2 3 1 2 4 5 5 2 5 6 6 6 8 3 3 6 6 6 3 3 5 3 2 6 6 8 6 8 9 9 9
6 7 6 7 7 5 5 6 5 6 6 4 5 6 7 8 7 6 7 8 8 7 6 6 6 5 5 5 4 4 3 3 3 2 2 3 4 5 5 5 6 7 6 6 7 4 3 6 7 7 7 2 2 2 6 3 2 5 4 6 9 9
6 6 8 7 6 6 6 6 6 6 6 5 7 7 8 7 7 7 6 4 7 7 6 6 5 6 6 5 5 5 5 5 5 5 4 4 4 5 6 5 5 6 6 6 7 7 6 4 7 8 10 9 8 8 3 1 1 6 0 6 4 7
7 7 6 7 7 6 6 6 7 6 5 5 5 5 3 4 5 5 5 7 6 7 7 6 7 6 6 5 5 5 4 4 4 5 4 4 5 5 6 6 6 5 6 6 5 8 8 6 4 7 8 10 11 10 9 5 6 1 6 1 5 6
6 7 6 7 7 6 6 5 6 5 5 6 6 4 5 5 4 4 6 7 6 6 7 7 7 6 5 6 6 6 6 6 6 6 4 5 6 5 5 5 6 7 7 5 5 6 8 6 6 5 4 9 9 10 9 10 9 8 4 4 2 3
8 8 7 7 7 6 5 5 5 4 6 5 4 4 3 4 5 5 6 6 6 6 6 6 6 6 7 7 7 6 5 5 5 5 5 5 6 6 7 7 7 7 6 7 5 5 7 8 7 7 7 7 8 9 9 10 8 5 8 7 7 5
10 7 6 7 6 7 6 6 7 7 7 6 5 4 5 6 6 6 6 7 6 6 6 6 7 7 8 9 9 8 7 6 6 6 5 5 5 6 6 7 7 7 7 7 4 5 7 6 6 7 8 8 8 7 8 7 7 7 4 6 7 3
9 7 7 7 7 7 7 7 7 7 8 7 6 6 7 7 7 7 7 7 7 6 6 6 8 8 9 10 9 9 9 8 8 7 7 7 7 6 6 6 6 7 7 7 5 6 7 7 7 7 8 7 9 9 9 8 8 8 8 5 4 7
9 8 7 7 8 8 7 8 7 7 8 8 8 7 8 7 7 7 7 7 6 6 7 7 7 8 10 11 9 9 9 9 9 9 9 8 8 8 8 7 6 6 6 6 6 6 7 8 9 9 8 7 8 9 10 10 9 8 9 9 8 7
8 7 7 7 8 8 8 7 7 7 7 7 8 8 7 7 6 6 6 8 8 7 7 8 9 10 10 11 9 9 10 9 9 9 9 12 12 13 12 10 9 8 7 6 6 7 8 8 8 8 7 7 8 8 10 10 8 5 6 8 8 8
7 7 7 8 8 8 8 7 7 7 7 7 7 7 7 7 7 7 7 7 7 7 7 8 8 9 9 10 10 10 10 10 9 10 12 11 10 10 10 9 10 11 11 9 8 9 9 9 8 9 9 9 8 8 8 8 8 8 7 7 6 8
8 7 8 7 7 8 7 8 7 7 8 6 7 7 7 7 7 8 7 8 8 8 8 8 8 8 9 9 9 10 11 10 10 11 10 9 10 9 10 9 9 9 9 10 11 11 9 9 9 9 9 9 9 8 8 7 7 7 7 8 8 8
7 7 7 8 7 7 6 7 8 9 8 8 7 7 7 7 7 7 7 7 8 7 7 7 7 8 8 8 8 9 9 10 10 11 9 8 9 9 10 10 9 9 10 8 10 12 11 11 10 10 9 9 9 8 7 7 7 7 7 7 7 5
8 8 8 7 6 6 6 8 8 8 8 8 8 7 7 7 7 7 7 7 7 7 7 7 7 7 8 8 8 9 8 9 9 11 9 10 10 10 10 9 9 10 10 10 9 10 10 10 10 10 8 10 9 8 8 7 6 6 6 7 7 8
Wind_Direction
101 106 100 101 102 112 131 127 129 132 133 135 130 128 137 144 148 153 121 91 70 67 57 34 40 295 156 111 143 144 136 134 137 139 137 119 185 250 330 335 329 336 339 356 360 14 36 50 73 113 124 117 114 112 130 128 126 133 140 140 135 155
107 108 110 104 109 111 110 116 109 116 126 138 140 142 134 146 153 131 129 92 77 89 87 68 343 294 48 186 173 169 162 144 148 139 128 137 207 304 300 314 317 322 340 347 6 37 53 49 58 128 135 126 117 130 136 132 137 144 148 159 157 180
119 120 112 113 109 100 111 112 117 123 125 136 138 129 132 144 133 110 93 94 105 122 155 101 197 228 183 217 242 207 188 185 165 166 150 169 199 280 307 307 320 324 341 1 20 34 69 74 41 100 121 105 126 136 134 136 146 153 162 178 176 186
127 121 115 119 102 113 118 123 125 118 123 121 123 125 128 132 109 107 116 125 142 185 162 198 256 262 214 182 251 245 203 200 204 219 196 39 341 303 295 321 325 339 359 4 358 17 72 91 93 99 112 128 131 136 142 155 158 167 164 191 199 186
114 113 116 117 117 121 131 120 125 128 121 122 124 120 129 128 131 128 143 163 174 175 179 194 283 3 119 153 175 11 13 42 17 25 21 10 356 344 360 333 351 348 0 349 347 341 17 104 97 114 130 137 140 150 159 163 166 171 174 200 214 187
103 108 119 125 133 144 137 137 140 148 124 125 139 151 145 141 142 160 163 177 180 182 183 86 352 43 133 149 181 186 138 47 353 310 298 322 349 341 326 336 333 336 338 337 324 308 305 113 132 127 146 153 158 167 171 174 175 177 181 192 222 191
114 118 122 128 111 120 153 167 153 144 131 138 150 146 154 142 133 138 172 182 183 207 108 57 303 311 227 200 213 192 200 210 229 275 285 247 292 321 312 329 333 320 328 327 313 307 307 311 118 142 159 173 173 175 176 186 189 184 185 191 211 185
128 125 133 136 134 145 167 161 165 153 116 169 154 190 213 164 102 78 97 235 235 172 75 38 314 305 272 259 247 234 201 191 232 255 260 276 273 295 300 305 316 307 318 316 305 299 299 299 306 166 162 182 185 183 184 186 193 189 187 195 210 189
130 131 140 145 144 163 148 111 86 104 153 173 178 204 193 126 88 76 62 223 206 48 55 41 328 298 304 263 261 244 222 217 193 230 224 258 247 295 298 285 286 289 298 298 298 291 302 299 295 290 227 187 191 187 188 186 189 191 189 192 206 205
130 132 138 133 154 138 109 98 96 132 175 172 206 196 174 153 126 137 221 233 213 138 147 229 279 290 249 257 262 272 275 278 230 217 192 235 208 192 235 276 280 286 292 289 293 283 291 285 282 279 271 204 190 190 187 184 186 192 188 190 197 208
109 128 131 135 142 102 96 118 144 158 179 189 203 203 196 173 137 183 225 251 289 314 298 294 284 286 286 281 287 292 279 283 278 246 210 222 204 198 197 211 224 235 243 254 260 266 260 260 264 266 271 212 190 177 186 189 185 188 190 190 192 197
88 108 113 124 118 128 152 183 170 169 192 199 196 208 208 201 204 201 220 242 258 357 306 285 317 318 293 284 278 268 267 279 267 242 218 219 195 201 201 214 221 229 237 242 258 264 251 249 261 258 264 217 162 174 184 187 189 191 192 188 193 198
127 121 154 163 150 158 195 199 166 180 204 198 211 204 215 215 217 180 205 224 229 195 187 217 260 258 272 271 268 266 259 241 250 266 245 234 213 175 189 251 263 243 267 258 265 268 248 228 247 253 267 225 158 169 180 190 196 193 193 193 193 197
159 167 185 178 174 184 206 198 163 183 200 200 211 216 223 211 221 203 192 195 202 204 194 198 222 256 253 267 277 270 262 259 244 247 253 249 253 237 246 254 263 288 275 275 268 269 266 260 254 260 189 244 37 16 41 205 217 213 201 198 193 194
167 181 188 192 189 206 199 185 180 201 204 197 199 222 247 242 236 223 198 217 183 183 188 205 227 237 259 259 269 274 267 260 254 234 232 238 246 267 258 266 278 281 286 283 272 273 258 256 260 263 68 57 67 98 56 354 331 305 254 219 193 203
172 191 205 204 201 193 189 184 201 217 192 182 203 229 244 244 256 240 190 241 213 188 193 215 220 221 249 251 253 260 268 286 291 309 316 311 285 275 264 264 258 240 284 284 280 278 238 254 269 275 78 119 152 180 144 151 195 259 312 298 244 210
181 204 220 236 217 154 160 193 207 231 199 172 208 240 251 253 264 258 187 202 208 206 211 221 224 212 225 241 243 252 285 314 328 321 308 279 250 245 241 250 257 224 206 253 276 274 279 246 254 277 105 161 193 168 119 188 198 185 203 241 270 242
220 238 224 243 223 103 121 37 38 3 233 210 221 244 266 295 279 284 290 249 182 207 222 214 217 210 217 233 239 263 313 329 325 303 281 265 257 245 254 250 271 260 228 236 255 261 272 262 237 226 152 171 210 177 167 174 164 205 203 203 230 244
17 316 266 237 87 82 82 38 10 34 21 275 287 283 310 302 291 304 298 309 320 206 215 196 203 213 223 236 250 264 279 281 278 269 258 259 255 231 228 233 245 265 242 231 234 237 238 257 264 236 200 208 194 208 196 199 178 206 217 210 210 229
355 345 342 3 97 89 75 71 352 339 344 297 307 323 324 289 307 302 300 308 306 295 234 188 170 178 187 198 213 229 237 237 229 231 267 291 297 292 277 273 266 273 300 293 269 263 250 259 340 307 247 235 219 218 221 186 198 208 206 210 210 201
36 61 44 353 39 119 108 55 344 290 260 294 327 1 320 306 298 284 293 295 304 309 320 354 84 148 179 217 212 223 238 272 304 307 303 292 287 286 276 268 286 297 277 283 279 255 308 89 243 266 234 234 249 232 230 215 207 204 210 212 197 200
30 44 35 24 6 35 136 181 180 206 203 311 16 19 336 341 325 316 320 320 325 328 346 7 9 2 335 349 357 340 316 305 285 272 266 272 281 282 290 280 274 254 209 230 260 224 208 130 241 236 263 298 285 274 243 234 232 223 212 213 211 204
41 44 33 20 23 2 326 354 42 51 56 24 44 55 7 319 331 336 327 328 324 333 347 10 65 24 359 30 44 20 356 344 15 47 348 304 294 294 293 304 297 250 284 239 249 246 215 182 247 210 282 317 268 280 241 243 242 237 212 204 205 212
52 52 36 22 18 4 22 48 50 67 51 61 33 8 14 3 356 346 345 337 333 337 344 344 356 3 358 9 46 42 358 311 303 293 282 302 308 297 277 267 264 253 252 275 247 253 204 204 224 108 260 209 242 196 279 233 231 234 204 205 198 212
52 58 48 32 21 9 32 39 38 45 43 30 26 28 30 20 14 15 17 10 353 343 347 346 349 349 350 346 347 349 341 315 311 288 263 278 288 286 285 276 276 273 262 251 272 271 216 206 216 200 226 273 329 264 242 263 151 269 190 202 215 208
47 48 50 37 26 29 43 50 47 44 34 33 40 31 29 12 3 16 12 358 14 8 356 352 354 351 343 343 340 339 338 331 321 316 310 296 295 298 289 280 266 267 272 257 259 273 274 223 224 218 219 226 235 258 278 290 136 270 309 220 214 213
61 49 40 41 36 39 36 54 56 62 62 59 65 47 17 22 13 5 6 19 13 14 14 11 4 356 348 345 344 339 328 315 308 305 303 297 286 280 284 288 282 258 257 257 254 269 268 274 246 228 225 234 242 241 242 243 239 309 285 245 206 201
55 53 35 37 34 32 46 38 56 55 57 54 47 34 19 21 16 14 22 15 10 11 10 19 13 3 356 359 355 340 336 332 327 312 309 302 298 294 290 285 282 279 275 263 253 254 278 276 269 270 213 244 243 244 236 237 239 225 240 268 252 200
52 44 34 32 38 31 39 52 54 46 55 46 42 36 28 26 28 16 33 17 13 4 4 11 13 8 2 7 8 353 337 324 313 313 313 307 305 305 299 293 289 281 278 275 265 253 260 268 268 269 273 254 246 242 230 226 222 178 212 228 246 197
41 36 32 31 36 39 36 44 52 41 49 42 35 32 33 32 22 13 22 15 11 10 2 2 5 7 8 9 8 358 351 343 339 326 320 310 306 308 306 299 290 284 280 272 252 249 251 258 256 258 251 260 258 253 240 230 215 209 212 204 235 218
41 37 33 34 34 37 37 44 51 49 50 44 36 40 39 32 20 20 16 9 10 4 3 6 6 3 9 11 7 5 356 356 354 347 342 338 329 318 309 303 295 290 287 283 275 259 251 250 250 255 252 250 254 250 247 236 219 211 213 211 219 241
43 38 34 37 41 35 36 34 38 38 40 33 33 35 35 27 18 19 13 13 4 9 11 12 10 8 10 7 6 4 4 8 5 359 355 343 344 334 323 310 307 306 301 292 283 281 276 275 273 266 257 248 250 250 245 241 232 208 204 219 217 231
48 37 38 39 46 40 39 35 33 36 34 33 36 37 32 30 15 21 19 20 16 15 7 11 13 12 7 4 8 7 7 7 0 357 358 8 4 358 351 339 327 317 308 309 312 306 301 294 289 290 288 273 258 248 244 239 233 222 219 221 213 230
54 41 42 43 40 43 37 35 39 41 38 36 39 37 36 34 26 31 30 29 25 18 16 15 8 11 358 10 12 11 9 3 358 4 22 8 1 354 347 348 350 350 343 332 320 308 295 293 290 286 282 280 268 257 251 243 233 222 214 203 211 218
60 40 47 43 42 42 35 34 37 38 36 38 40 39 37 36 34 34 30 32 26 22 22 13 12 7 8 14 12 13 12 7 1 24 12 12 357 353 351 350 357 348 346 348 336 326 310 295 293 294 289 284 279 262 251 243 233 222 209 207 207 206
65 57 51 48 43 40 36 40 38 39 36 40 41 41 40 37 38 37 37 32 26 24 20 17 12 13 11 12 11 12 11 8 6 21 2 2 357 357 355 353 351 349 343 343 335 329 325 317 304 293 288 288 282 269 255 245 233 226 220 217 214 220
68 60 54 50 48 41 43 44 39 41 38 40 41 40 40 41 40 39 39 33 29 24 23 20 15 12 10 11 11 17 9 8 16 12 4 4 357 353 354 353 347 342 341 334 328 326 322 322 321 306 292 286 279 272 266 255 243 238 228 220 216 210